Temperature
23 19 19 19 19 20 20 20 20 21 22 21 20 20 19 20 20 20 21 20 20 19 19 18 18 17 17 16 16 15 15 14 14 14 13 13 13 13 13 13 13 13 13 13
20 19 20 20 20 20 20 20 20 21 22 21 20 20 19 19 20 21 21 20 20 19 18 18 17 17 17 16 16 15 14 14 14 13 13 13 13 13 13 13 13 13 13 13
20 20 21 21 21 21 21 20 21 21 22 22 21 20 20 19 20 21 21 21 20 19 18 18 17 17 17 16 15 15 14 14 13 13 13 13 13 13 13 13 13 13 13 13
19 21 22 21 21 21 21 22 22 22 21 19 21 18 19 19 19 19 20 20 20 19 19 18 18 17 17 16 15 15 14 14 13 13 13 13 13 13 12 12 12 13 13 12
20 21 21 22 22 22 21 23 22 22 21 19 19 18 18 19 19 18 19 20 20 19 19 18 18 17 17 16 15 15 14 14 13 13 13 13 13 13 12 12 12 12 12 12
21 22 22 22 23 23 22 22 20 17 17 18 19 18 18 17 18 19 19 20 20 19 19 18 18 17 17 16 15 15 14 14 14 13 13 13 13 12 12 12 12 12 12 12
21 22 23 23 23 23 21 18 18 18 17 18 19 19 18 19 19 19 19 20 20 20 19 18 18 17 17 16 16 15 15 14 14 14 13 13 13 13 12 12 12 12 12 12
20 21 22 24 22 22 21 18 18 19 18 18 20 19 19 20 20 21 21 21 20 20 19 19 18 17 17 16 16 15 15 15 14 14 14 13 13 13 12 12 12 12 12 12
20 21 23 24 23 22 21 19 18 17 18 18 18 19 20 20 19 19 20 20 20 20 19 19 18 18 17 17 16 16 15 15 15 14 14 14 13 13 13 12 12 12 12 12
20 21 22 23 23 22 21 19 16 18 18 18 19 19 17 19 18 18 18 19 20 20 19 19 18 18 17 17 16 16 16 15 15 15 14 14 13 13 13 13 12 12 12 12
20 20 21 22 22 21 22 21 17 15 16 17 18 18 18 18 18 18 18 20 20 20 20 19 19 18 17 17 17 16 16 16 15 15 15 14 14 13 13 13 12 12 12 12
20 17 18 20 20 21 21 20 17 17 18 16 16 17 19 18 18 19 20 21 21 20 20 19 19 18 18 17 17 17 16 16 16 15 15 14 14 13 13 13 13 12 12 12
20 18 18 19 19 21 22 21 18 16 16 15 16 18 19 19 19 21 21 21 21 20 20 19 19 18 18 17 17 17 17 16 16 16 15 15 14 14 13 13 13 12 12 12
19 18 18 19 19 19 21 21 20 17 16 17 18 18 20 19 19 19 21 21 21 20 20 19 19 18 18 18 17 17 17 17 16 16 16 15 15 14 14 13 13 13 12 12
19 19 20 20 20 20 20 21 20 19 17 17 19 20 20 19 18 20 21 21 21 20 20 20 19 19 18 18 18 17 17 17 17 17 16 16 15 15 14 14 14 13 13 12
18 20 21 21 21 21 21 21 20 19 19 18 19 20 20 20 21 21 21 21 21 21 20 20 20 19 19 18 18 18 18 17 17 17 17 16 16 16 15 15 14 14 13 13
17 18 19 18 19 21 20 20 20 20 19 19 19 19 20 19 19 20 21 21 21 21 21 20 20 19 19 19 19 18 18 18 18 17 17 17 16 16 16 15 15 14 14 13
17 17 16 17 19 19 20 20 20 20 20 19 20 19 19 20 22 22 22 22 21 21 21 20 20 20 19 19 19 19 18 18 18 17 17 17 17 16 16 16 15 15 14 14
17 17 16 16 17 18 20 21 21 20 20 20 20 20 20 22 21 20 22 22 21 21 21 20 20 19 19 19 19 18 18 18 18 18 17 17 17 17 16 16 16 15 15 14
16 16 16 15 18 18 20 21 22 21 21 20 20 20 20 19 17 18 21 21 21 21 20 20 20 19 19 19 19 18 18 18 18 18 18 17 17 17 16 16 16 15 15 15
18 17 16 15 16 17 19 21 22 21 20 22 22 22 21 19 21 22 21 21 21 20 20 19 19 19 19 19 18 18 18 18 18 17 17 17 16 16 16 16 15 15 15 15
16 16 15 14 16 17 19 22 21 21 23 23 23 24 23 23 23 22 21 21 20 20 19 19 19 19 18 18 18 18 18 17 17 17 17 16 16 16 15 15 15 15 15 15
16 17 16 17 18 20 22 23 25 25 24 24 24 24 24 23 22 21 21 20 20 19 19 19 19 18 18 18 18 18 17 17 17 16 16 16 15 15 15 14 14 14 14 14
16 17 16 16 17 19 22 24 25 25 25 25 25 24 24 23 22 21 21 20 19 19 19 18 18 18 18 17 17 17 17 16 16 16 15 15 15 14 14 14 14 14 14 14
17 18 17 17 17 19 22 24 25 25 25 24 24 24 24 23 22 21 21 20 19 19 18 18 18 17 17 17 17 16 16 16 15 15 15 14 14 13 13 13 13 12 12 12
16 18 17 17 19 18 22 25 24 24 24 24 24 23 23 23 22 21 20 20 19 18 18 17 17 17 16 16 16 15 15 15 14 14 13 13 12 12 12 12 12 12 12 12
Wind_Speed
5 5 5 7 9 9 7 5 4 5 6 8 9 9 9 11 9 9 7 8 9 9 7 7 7 7 6 5 6 5 5 3 3 3 3 3 4 4 4 4 6 7 7 7
4 3 6 9 9 8 5 3 3 4 5 7 7 8 8 11 12 10 9 9 10 9 7 7 6 6 6 6 6 5 4 3 3 1 1 1 1 2 2 4 5 6 6 6
7 4 9 9 7 6 4 6 6 5 2 2 2 5 2 5 6 6 7 9 11 13 12 9 8 7 7 6 6 6 4 3 2 2 2 3 3 4 4 5 5 5 5 5
3 4 7 6 6 6 5 7 6 4 2 3 3 2 5 5 6 8 8 9 11 11 10 10 9 8 7 6 6 6 4 3 1 2 2 2 1 2 3 3 4 5 5 4
5 6 7 5 6 8 8 6 4 2 3 2 1 4 6 3 7 9 9 9 10 11 12 11 10 9 8 7 6 5 4 3 1 1 2 1 1 1 2 3 5 5 5 4
3 3 5 7 4 5 5 4 6 6 5 2 5 6 6 6 9 8 7 8 10 10 10 10 8 8 7 6 5 5 4 3 2 1 1 2 1 0 2 3 4 4 4 4
2 1 1 4 4 2 5 6 5 5 4 6 3 5 8 7 7 9 10 9 10 10 10 10 9 8 8 7 6 5 5 4 3 2 1 2 2 2 1 1 2 3 3 3
3 2 4 3 5 5 5 9 7 4 4 5 2 4 5 3 5 7 9 10 10 10 10 11 10 9 8 9 7 6 6 4 4 4 3 3 3 2 1 1 2 2 2 3
4 3 2 1 2 6 5 4 7 6 2 2 4 2 4 1 3 5 7 9 10 11 10 10 10 9 9 9 8 8 7 5 5 5 4 4 3 3 2 2 2 2 3 3
6 3 2 1 5 4 6 7 6 4 2 2 3 4 6 9 9 8 8 10 10 10 9 10 9 9 9 9 8 7 7 6 5 5 5 4 4 4 3 2 3 3 4 4
4 4 1 1 4 5 3 3 5 4 5 5 3 6 7 12 10 10 10 10 10 10 10 10 9 9 8 7 7 6 6 5 5 6 5 3 3 3 2 2 2 2 2 3
4 5 2 5 5 6 6 6 7 4 3 5 4 7 6 10 10 10 10 9 9 10 9 9 9 8 7 7 7 6 6 6 7 6 5 4 3 3 3 3 2 2 1 2
5 6 3 5 6 1 4 6 7 6 4 4 4 7 3 4 7 8 9 9 8 9 8 7 7 8 8 8 7 6 6 7 7 6 5 4 3 3 4 4 3 2 1 2
5 5 6 8 7 6 6 7 7 7 5 5 7 7 4 7 8 8 8 9 9 9 9 9 8 8 8 8 7 7 7 7 7 7 6 5 5 5 5 4 3 3 2 1
6 4 6 7 7 6 8 9 10 9 10 8 7 7 9 11 12 10 9 9 8 8 9 10 9 9 8 7 7 7 7 7 7 7 7 7 6 5 5 4 4 3 3 3
4 4 2 4 5 4 7 10 12 11 9 9 6 7 8 6 7 7 9 10 9 10 10 10 10 9 9 9 8 8 8 8 7 8 8 7 6 6 6 5 5 4 4 4
5 6 3 5 6 3 7 11 14 10 8 10 11 10 5 6 9 10 10 9 9 10 9 10 9 9 9 9 9 9 9 7 7 7 7 7 7 7 7 6 5 5 5 4
8 7 4 3 2 6 10 7 10 13 12 11 9 9 12 11 10 8 9 9 9 9 9 9 8 7 7 7 7 7 5 6 6 6 6 6 7 8 7 6 6 6 5 5
8 9 5 4 4 8 10 8 8 10 11 11 12 11 11 8 6 1 6 8 8 8 8 7 7 6 4 5 5 5 4 4 4 5 6 6 7 7 7 7 8 6 5 6
5 6 6 5 4 7 10 9 5 7 6 8 13 14 11 11 6 6 6 7 8 7 6 6 5 5 4 3 5 6 3 2 3 5 5 5 5 6 7 8 8 6 6 7
4 3 5 6 6 8 10 7 6 7 9 6 12 13 14 12 9 8 9 8 8 7 7 7 7 5 3 4 6 6 3 0 3 3 2 2 3 4 6 6 5 6 6 6
9 7 7 6 5 10 8 4 8 9 5 4 10 11 13 9 8 10 10 9 9 8 7 8 8 6 3 4 7 6 3 2 2 1 1 1 2 3 3 4 5 5 5 6
9 11 9 11 11 10 7 10 8 6 5 6 9 9 12 12 10 10 10 10 8 8 7 7 9 7 5 5 6 6 2 3 3 4 3 3 4 4 4 4 5 5 4 4
6 3 3 5 9 9 8 7 6 7 7 7 9 11 13 13 12 11 11 9 8 7 7 7 9 9 6 6 6 5 4 4 5 5 5 5 5 6 6 5 4 4 4 4
6 2 2 6 9 7 7 8 8 6 7 8 9 10 14 15 13 12 11 10 9 8 7 8 9 9 8 7 7 6 5 6 7 6 5 6 5 5 6 6 4 4 4 3
6 6 5 7 9 7 10 11 9 9 10 11 11 10 11 14 15 13 12 10 10 9 8 9 9 10 8 7 7 6 6 6 7 6 5 5 5 5 5 6 6 7 7 10
Wind_Direction
159 124 172 185 170 166 174 184 217 231 202 189 224 239 217 205 202 202 201 186 174 169 171 161 153 145 130 102 90 89 84 60 50 35 17 10 355 345 350 352 1 7 11 16
81 186 189 159 155 148 155 198 234 265 210 191 228 250 226 198 201 196 189 179 164 157 157 156 150 139 125 114 107 106 104 83 66 57 340 327 317 316 323 338 354 3 11 15
159 193 156 151 158 161 183 193 198 219 277 231 195 316 235 199 198 195 184 170 161 165 165 164 154 143 132 127 131 128 127 114 86 46 25 13 8 357 355 350 347 346 359 10
173 184 167 164 179 169 205 214 202 200 143 275 162 241 274 202 187 199 192 168 166 165 162 163 158 151 150 153 148 142 142 139 118 70 58 48 28 346 309 312 327 344 358 1
198 182 169 183 202 178 203 210 198 182 146 334 321 152 278 176 198 216 206 183 172 169 166 168 166 163 162 160 155 155 153 162 178 116 102 82 37 301 309 339 353 355 352 349
210 189 174 188 191 176 165 71 42 49 68 322 233 161 246 210 206 203 200 185 174 172 169 168 165 158 158 160 155 157 162 190 216 192 120 126 130 52 22 2 350 345 339 332
1 341 214 150 113 45 88 82 32 0 7 261 236 162 236 230 201 178 178 181 177 171 167 166 166 168 169 170 171 172 175 197 216 210 185 161 163 162 121 320 323 338 334 318
138 258 236 182 161 168 160 132 152 196 227 283 328 213 255 251 171 158 165 172 173 176 176 176 179 179 181 185 186 189 196 206 209 205 204 192 172 172 203 235 253 294 289 284
154 248 301 99 114 135 131 151 170 146 207 260 296 332 338 343 175 172 175 174 185 188 186 185 185 183 185 190 196 200 202 208 209 206 196 199 206 208 228 253 267 286 295 298
149 171 283 29 58 45 143 145 98 124 168 278 299 225 221 216 219 214 203 197 202 197 191 188 187 189 192 198 205 206 202 204 209 207 204 201 216 229 235 245 277 290 307 322
135 148 291 37 197 202 166 148 116 125 158 162 227 256 223 199 200 200 207 207 199 195 193 191 192 195 196 199 206 209 211 206 206 208 210 213 230 235 220 224 254 266 299 322
154 131 201 255 271 199 179 181 148 157 217 172 188 262 264 188 189 188 198 203 197 193 190 189 190 191 195 203 212 213 210 206 208 207 207 213 217 207 206 218 236 240 299 325
134 115 85 352 336 328 202 187 160 142 132 163 179 261 292 192 192 196 191 193 186 183 182 182 185 191 200 206 212 212 209 206 206 200 204 207 200 198 206 213 225 229 259 321
119 123 161 187 215 213 220 215 176 140 170 215 221 239 230 206 208 212 205 196 189 187 185 185 193 203 207 209 210 210 211 205 199 196 201 210 212 208 210 212 221 228 236 267
120 164 206 226 239 208 215 217 196 185 187 191 225 217 223 210 205 207 203 197 191 196 197 197 200 207 211 213 214 210 209 204 197 194 205 217 217 211 207 211 223 230 242 248
124 171 220 281 266 235 239 229 210 208 199 207 222 246 242 204 179 189 194 188 193 200 202 203 204 204 208 212 212 208 209 209 199 200 213 218 211 208 210 215 221 231 248 261
161 160 166 265 291 336 265 224 207 210 207 191 212 223 183 163 179 186 187 185 190 194 194 194 197 202 207 210 209 209 212 208 201 210 219 217 210 212 219 218 217 232 244 250
156 151 154 226 336 241 245 233 199 206 217 198 195 190 179 184 189 187 178 174 182 184 183 187 191 198 206 206 206 208 205 197 201 214 223 221 215 220 225 224 230 237 237 240
159 149 150 167 232 275 286 266 194 190 231 207 189 185 184 153 111 194 195 170 173 175 174 180 182 182 182 186 185 172 181 188 200 221 228 226 216 220 225 229 236 236 233 241
104 118 137 150 194 246 254 266 200 137 245 217 180 175 166 137 152 223 203 159 150 147 151 153 150 138 141 158 141 131 146 162 229 240 235 228 215 217 228 235 239 236 230 240
152 129 159 177 214 260 256 268 129 152 234 217 179 171 166 175 189 182 160 150 146 142 141 134 124 118 136 139 123 115 100 22 275 266 244 241 238 238 243 249 249 246 245 250
185 183 194 167 201 252 251 177 185 212 232 193 181 175 170 171 149 143 147 145 141 135 131 127 115 105 93 107 110 99 70 323 336 31 30 324 296 286 290 274 276 270 260 262
201 196 191 189 213 232 223 209 219 186 186 186 170 168 152 146 150 153 152 150 147 142 137 126 119 105 79 75 94 93 29 7 47 50 22 350 341 332 325 312 303 300 286 270
263 196 165 252 266 260 245 226 204 187 187 178 163 154 151 154 157 156 154 152 148 144 140 132 121 110 92 72 73 71 40 46 62 52 26 10 2 349 343 335 323 316 308 298
242 194 223 266 282 304 280 235 210 185 159 151 154 161 163 157 160 162 160 158 152 143 136 130 126 120 110 91 73 56 48 62 65 53 33 19 13 4 352 346 333 326 309 310
215 192 197 241 250 230 246 242 215 187 182 172 164 164 169 166 164 162 161 158 149 142 134 128 123 121 115 98 77 53 49 65 69 52 31 20 11 4 0 355 351 351 360 3
Height
1498 1508 1515 1515 1513 1516 1519 1524 1525 1519 1513 1518 1519 1518 1516 1516 1518 1519 1519 1520 1522 1524 1526 1527 1528 1527 1526 1526 1525 1524 1523 1521 1519 1517 1515 1514 1512 1511 1509 1507 1505 1503 1502 1500
1504 1510 1506 1507 1509 1512 1517 1523 1522 1516 1510 1515 1517 1516 1512 1513 1514 1515 1516 1518 1520 1523 1525 1526 1526 1526 1525 1525 1524 1523 1522 1520 1519 1517 1515 1514 1513 1511 1510 1508 1506 1504 1502 1500
1506 1506 1503 1507 1511 1515 1517 1519 1518 1516 1511 1511 1516 1520 1514 1512 1513 1514 1515 1515 1517 1519 1521 1523 1524 1524 1524 1524 1523 1522 1521 1520 1518 1517 1515 1514 1513 1511 1510 1508 1506 1504 1502 1500
1504 1502 1504 1507 1510 1511 1517 1508 1509 1511 1520 1526 1519 1535 1520 1514 1513 1513 1513 1514 1515 1518 1519 1521 1522 1522 1523 1523 1522 1521 1521 1519 1518 1516 1515 1514 1512 1511 1509 1508 1506 1505 1503 1501
1503 1500 1502 1506 1504 1505 1508 1502 1506 1510 1517 1525 1523 1532 1527 1515 1516 1512 1511 1512 1514 1515 1517 1519 1520 1521 1521 1521 1521 1521 1520 1519 1518 1516 1515 1514 1512 1511 1509 1508 1506 1504 1503 1501
1498 1496 1497 1499 1497 1498 1500 1506 1512 1520 1527 1537 1524 1531 1527 1519 1511 1508 1508 1510 1512 1514 1516 1517 1518 1519 1520 1520 1520 1520 1519 1518 1517 1516 1515 1513 1512 1510 1509 1507 1506 1504 1502 1501
1503 1499 1495 1495 1499 1500 1505 1521 1538 1538 1547 1539 1520 1524 1521 1506 1502 1503 1505 1508 1510 1512 1514 1515 1516 1518 1518 1519 1519 1519 1518 1518 1517 1516 1514 1513 1511 1510 1508 1507 1505 1504 1502 1500
1512 1513 1498 1494 1498 1503 1507 1518 1539 1545 1545 1536 1519 1523 1514 1501 1500 1501 1503 1506 1508 1510 1511 1513 1514 1516 1517 1517 1518 1518 1517 1517 1516 1515 1514 1513 1511 1510 1508 1507 1505 1504 1502 1500
1511 1510 1495 1493 1493 1497 1506 1515 1517 1531 1532 1536 1530 1518 1509 1503 1503 1503 1504 1505 1506 1507 1509 1511 1512 1514 1515 1516 1516 1516 1516 1516 1515 1514 1513 1512 1511 1509 1508 1507 1505 1504 1502 1500
1500 1507 1498 1494 1494 1496 1500 1507 1522 1529 1538 1542 1529 1524 1522 1509 1506 1503 1503 1503 1504 1506 1507 1509 1510 1512 1513 1514 1515 1515 1515 1515 1514 1513 1512 1511 1510 1509 1507 1506 1505 1503 1501 1500
1495 1507 1505 1500 1501 1503 1503 1506 1517 1530 1533 1542 1538 1528 1501 1500 1499 1500 1500 1500 1501 1503 1505 1506 1508 1510 1511 1512 1513 1513 1513 1513 1513 1512 1511 1510 1509 1508 1506 1505 1504 1502 1500 1499
1494 1506 1513 1505 1497 1495 1498 1502 1514 1527 1527 1532 1538 1526 1492 1492 1493 1495 1496 1498 1499 1501 1503 1504 1506 1508 1509 1510 1511 1512 1512 1512 1511 1511 1510 1509 1508 1507 1505 1504 1502 1501 1499 1497
1492 1506 1519 1517 1510 1499 1498 1498 1505 1514 1523 1530 1534 1518 1491 1492 1493 1493 1494 1495 1497 1499 1501 1502 1504 1506 1507 1508 1509 1510 1510 1510 1510 1510 1509 1508 1507 1505 1504 1502 1501 1499 1497 1496
1488 1501 1512 1516 1510 1502 1499 1496 1497 1508 1521 1522 1516 1507 1494 1492 1492 1492 1492 1494 1495 1497 1498 1500 1502 1503 1504 1506 1507 1507 1508 1508 1509 1508 1508 1507 1506 1504 1503 1501 1500 1498 1496 1494
1486 1498 1497 1496 1492 1493 1493 1492 1494 1500 1505 1511 1502 1496 1490 1487 1487 1487 1489 1491 1493 1494 1496 1498 1499 1501 1502 1503 1504 1505 1506 1506 1507 1507 1506 1505 1504 1503 1502 1500 1499 1497 1495 1493
1486 1493 1492 1493 1487 1488 1490 1487 1488 1490 1493 1495 1494 1491 1481 1480 1483 1485 1487 1488 1490 1491 1493 1495 1496 1498 1499 1501 1502 1503 1504 1504 1505 1505 1504 1504 1503 1502 1501 1499 1498 1496 1494 1493
1488 1492 1498 1502 1492 1489 1494 1482 1482 1483 1481 1484 1490 1484 1479 1481 1482 1482 1484 1485 1487 1488 1490 1492 1494 1495 1497 1498 1499 1500 1501 1502 1502 1503 1502 1502 1501 1500 1499 1498 1497 1495 1493 1491
1485 1492 1501 1503 1498 1504 1484 1465 1467 1471 1470 1470 1471 1471 1473 1475 1477 1479 1481 1483 1484 1486 1488 1490 1492 1493 1495 1496 1497 1498 1499 1500 1500 1500 1500 1499 1499 1498 1497 1496 1495 1493 1491 1489
1475 1486 1499 1505 1504 1496 1476 1461 1461 1468 1469 1462 1464 1466 1469 1473 1477 1479 1480 1481 1482 1484 1486 1488 1490 1491 1493 1494 1495 1496 1497 1497 1497 1497 1497 1497 1496 1495 1494 1493 1492 1490 1489 1487
1476 1480 1493 1502 1501 1500 1475 1455 1451 1458 1466 1454 1456 1461 1466 1470 1480 1478 1477 1479 1481 1482 1484 1486 1488 1489 1491 1492 1493 1494 1494 1494 1494 1494 1494 1494 1493 1492 1491 1490 1489 1487 1485 1484
1482 1485 1493 1498 1498 1486 1461 1452 1452 1471 1465 1449 1451 1455 1460 1463 1466 1469 1473 1476 1478 1481 1483 1484 1486 1487 1489 1490 1491 1491 1492 1492 1492 1491 1491 1490 1490 1489 1487 1486 1485 1483 1481 1480
1480 1486 1491 1494 1496 1485 1451 1452 1454 1452 1445 1446 1448 1451 1454 1458 1462 1466 1470 1473 1476 1478 1480 1482 1484 1485 1487 1488 1488 1489 1489 1489 1489 1488 1488 1487 1486 1485 1483 1482 1480 1479 1477 1475
1471 1467 1469 1470 1466 1449 1444 1445 1443 1444 1444 1444 1445 1448 1452 1456 1460 1464 1467 1471 1474 1476 1478 1480 1481 1483 1484 1485 1486 1486 1486 1486 1486 1485 1484 1483 1482 1480 1479 1477 1475 1473 1472 1470
1461 1456 1461 1461 1452 1444 1441 1441 1441 1442 1442 1443 1444 1446 1450 1453 1457 1461 1465 1468 1471 1473 1475 1477 1479 1480 1481 1482 1483 1483 1483 1483 1482 1481 1480 1479 1477 1476 1474 1472 1471 1469 1467 1465
1456 1454 1456 1456 1448 1443 1440 1438 1439 1440 1441 1442 1444 1446 1448 1451 1455 1458 1461 1464 1467 1470 1472 1474 1476 1477 1478 1479 1480 1480 1480 1479 1479 1478 1476 1475 1473 1471 1470 1468 1467 1465 1463 1461
1449 1451 1454 1453 1444 1443 1439 1436 1437 1437 1438 1439 1441 1444 1446 1449 1451 1454 1458 1461 1464 1467 1469 1471 1473 1475 1476 1476 1477 1477 1477 1476 1475 1474 1473 1472 1470 1468 1466 1465 1464 1462 1461 1459